Regional Weather Roundup
Issued by NWS

Home | Current Version | Previous Version | Graphics & Text | Print | Product List | Glossary On
Versions: 1 2 3 4 5 6 7 8 9 10 11 12 13 14 15 16 17 18 19 20 21 22 23 24 25 26 27 28
000
ASUS45 KSLC 160710
RWRUT

UTAH REGIONAL WEATHER ROUNDUP
NATIONAL WEATHER SERVICE SALT LAKE CITY UT
100 AM MDT MON OCT 16 2017

UTZ001>011-023>025-160800-

NORTHERN UTAH

CITY           SKY/WX    TMP DP  RH WIND       PRES   REMARKS
BRIGHAM CITY   CLEAR     36  23  59 CALM      30.43R
HILL AFB       PTCLDY    40  20  44 E7        30.41S WCI  35
LOGAN          CLEAR     34  23  64 CALM      30.42R
OGDEN          PTCLDY    39  22  50 S9        30.41S WCI  33
SALT LAKE CITY PTCLDY    40  29  64 SE6       30.41S
TOOELE VALLEY  PTCLDY    32  23  69 S7        30.41F WCI  26
WENDOVER       PTCLDY    35  16  45 CALM      30.42S
WEST JORDAN    CLEAR     37  25  61 SW6       30.42F WCI  32

$$

UTZ011>015-024>027-160800-

CENTRAL/NORTHEAST UTAH

CITY           SKY/WX    TMP DP  RH WIND       PRES   REMARKS
PROVO AIRPORT  CLEAR     32  21  64 SE5       30.43F WCI  27
MOAB/CANYONLAN PTCLDY    38  10  31 W3        30.43S
DELTA          PTCLDY    28  19  69 S6        30.43S WCI  22
PRICE          PTCLDY    36   3  25 N9        30.46S WCI  29
ROOSEVELT      CLOUDY    30  21  69 SW6       30.48S WCI  24
VERNAL         CLOUDY    35  16  45 W3        30.45F

$$

UTZ013>016-019>022-027-160800-

SOUTHERN UTAH

CITY           SKY/WX    TMP DP  RH WIND       PRES   REMARKS
BRYCE CANYON   PTCLDY    18  -2  41 W5        30.54F WCI  11
CEDAR CITY     PTCLDY    34  11  38 S3        30.42S
MILFORD        PTCLDY    32   9  38 W7        30.42S WCI  26
ST GEORGE      SUNNY     54   2  12 CALM      30.33S
HANKSVILLE     PTCLDY    34  10  37 CALM      30.47S
BLANDING         N/A     40   1  19 N8        30.54S WCI  35

$$

REGIONAL REPORTS     COLORADO/ARIZONA

CITY           SKY/WX    TMP DP  RH WIND       PRES   REMARKS
CRAIG, CO      CLOUDY    25  19  78 CALM      30.48S
GRAND JUNCTION CLOUDY    41  13  31 E6        30.45F
RIFLE, CO      CLOUDY    33  19  56 CALM      30.49S
MONTROSE, CO   CLOUDY    33  16  49 S10       30.51F WCI  25
CORTEZ, CO     CLOUDY    27  16  63 CALM      30.50S
COLORADO CITY    N/A     43   1  17 CALM      30.42S
PAGE, AZ       PTCLDY    47  15  27 CALM      30.41S
GRAND CANYON   PTCLDY    36  -5  17 NE6       30.48S WCI  31
KINGMAN, AZ    CLEAR     49  14  24 E5        30.28S
FLAGSTAFF, AZ  PTCLDY    28   0  29 CALM      30.50S

$$

REGIONAL REPORTS    NEVADA/IDAHO/WYOMING

CITY           SKY/WX    TMP DP  RH WIND       PRES   REMARKS
LAS VEGAS, NV  CLEAR     61  14  16 S6        30.24S
ELY, NY        CLEAR     27   1  32 S14       30.46S WCI  16
ELKO, NV       CLEAR     30  17  58 CALM      30.39S
POCATELLO, ID  CLOUDY    30  25  81 CALM      30.40S
BURLEY, ID     CLEAR     30  26  85 CALM      30.35F
FORT BRIDGER,    N/A     40  12  32 W7        30.47S WCI  35
EVANSTON, WY   CLOUDY    42  14  32 S5        30.45S
ROCK SPRINGS,  CLOUDY    43   8  23 CALM      30.43F
KEMMERER, WY   CLOUDY    30  19  64 N6        30.46S WCI  24

$$




USA.gov is the U.S. government's official web portal to all federal, state and local government web resources and services.